www.pogodaiklimat.ru

Погода и климат >> Архив погоды >> Россия >> Чукотка >> Айон Остров


ПОГОДА на Айон Острове

  • Прогноз погоды на Айон Острове
  • Монитор погоды на Айон Острове
  • Климат города

АРХИВ ПОГОДЫ на Айон Острове

Время (UTC), дата Ветер
(напр.,м/с)
 
Видим.   Явления Облачность Т
(С)
Тd
(С)
f
(%)
Тe
(С)
Тes
(С)
Комфортность P
(гПа)
Po
(гПа)
Тmin
(С)
Tmax
(С)
R
(мм)
R24
(мм)
S
(см)
21 18.04 В 3-4
{4}
500 м переохл. туман ?/? -6.1 -6.4 98 -12 -12 1010.6 1008.8 -11.2 12
00 19.04 В 3-4
{5}
500 м переохл. туман ?/? -4.1 -4.3 99 -10 -10 1011.0 1009.2
03 19.04 СВ 3-4
{5}
20 км {туман} 10/10 150 м
[St]
-3.0 -3.7 95 -8 -8 1011.3 1009.5
06 19.04 СВ 6-7
{8}
20 км позёмок {туман, метель} 10/10 240 м
[St]
-3.8 -5.3 89 -11 -11 1012.0 1010.2
09 19.04 СВ 6-7
{7}
10 км позёмок {метель} 10/10 210 м
[St]
-5.2 -6.9 88 -13 -13 1012.9 1011.1 -3.0
12 19.04 СВ 3-4
{7}
500 м переохл. туман {метель} ?/? -6.5 -6.7 98 -12 -12 1014.0 1012.2
15 19.04 СВ 2-3
{4}
500 м переохл. туман ?/? -7.2 -7.5 98 -12 -12 1014.7 1012.9
18 19.04 СВ 2-3
{4}
500 м переохл. туман ?/? -8.9 -9.5 95 -13 -13 1015.5 1013.7
21 19.04 СВ 2-3
{3}
10 км в посл. час туман 10/10 120 м
[St]
-9.4 -10.1 95 -14 -14 1016.4 1014.6 -9.7 12
00 20.04 СВ 2-4
{4}
10 км {туман} 10/10 120 м
[St]
-7.5 -8.8 90 -12 -12 1016.5 1014.7
03 20.04 СВ 3-5
{6}
4000 м слабый снег 10/8 200 м
[Frnb As op]
-6.8 -8.4 88 -13 -12 1016.7 1014.9
06 20.04 СВ 4-6
{6}
20 км {снег} 10/6 240 м
[St As trans]
-8.0 -9.8 87 -15 -15 1017.1 1015.3
09 20.04 СВ 1-2
{6}
20 км 10/6 240 м
[St Ac trans Ci fib]
-9.3 -10.9 88 -12 -12 1017.9 1016.1 -6.8 0.2
12 20.04 ЮВ 2-3
{3}
10 км 10/10 180 м
[St]
-10.8 -12.8 85 -15 -15 1018.3 1016.5
15 20.04 ЮВ 2-3
{3}
10 км 10/10 180 м
[St]
-11.6 -13.6 85 -16 -16 1018.9 1017.1
18 20.04 Ю 2-3
{4}
20 км 10/10 180 м
[St]
-11.5 -13.5 85 -16 -16 1019.1 1017.3
21 20.04 ЮВ 3-4
{4}
500 м переохл. туман ?/? -11.0 -11.0 100 -17 -17 1019.5 1017.7 -11.9 12
00 21.04 В 3-4
{4}
20 км в посл. час снег {туман} 6/3 300 м
[St Ac trans]
-11.2 -13.2 85 -17 -14 1019.5 1017.7 -13.0
03 21.04 ЮВ 4-5
{5}
20 км 8/3 200 м
[St Ac trans]
-10.2 -11.5 90 -17 -16 1019.7 1017.9
06 21.04 В 3-4
{5}
20 км 10/10 420 м
[St]
-10.1 -11.4 90 -16 -16 1019.2 1017.4
09 21.04 В 2-3
{4}
20 км 6/0
[Ac trans Ci fib]
-13.2 -14.5 90 -18 -18 1019.7 1017.8 -9.6 0.3
12 21.04 штиль 0
{4}
20 км 4/0
[Ac trans Ci fib]
-16.1 -17.4 90 -16 -16 1019.5 1017.6
15 21.04 В 2-2
{3}
20 км 6/0
[Ac trans Ci fib]
-16.6 -18.5 85 -22 -22 1018.9 1017.0
18 21.04 В 4-5
{6}
20 км 8/0
[Ac trans Ci fib]
-13.3 -15.3 85 -21 -20 1018.9 1017.0
21 21.04 В 2-3
{6}
20 км 3/0
[Ci fib]
-13.4 -14.7 90 -18 -15 1019.1 1017.2 -16.8 12
00 22.04 В 3-4
{4}
20 км 3/0
[Ci fib]
-9.9 -11.6 87 -16 -11 1019.1 1017.3
03 22.04 ЮВ 2-3
{4}
20 км 3/0
[Ci fib]
-7.1 -9.2 85 -12 -6 1019.1 1017.3
06 22.04 В 3-4
{4}
20 км 1/0
[Ci fib]
-8.2 -10.1 86 -14 -13 1019.0 1017.2
09 22.04 В 2-3
{4}
20 км 3/0
[Ac trans Ci fib]
-11.7 -13.7 85 -16 -16 1019.2 1017.4 -6.4
12 22.04 В 4-5
{5}
20 км 1/0
[Ac trans]
-12.8 -14.1 90 -20 -20 1019.1 1017.2
15 22.04 ЮВ 4-5
{6}
20 км 1/0
[Ac trans]
-15.4 -17.3 85 -23 -23 1018.7 1016.8
18 22.04 ЮВ 2-3
{5}
20 км 3/0
[Ci fib]
-13.3 -15.3 85 -18 -18 1018.7 1016.8
21 22.04 В 1-2
{4}
20 км 3/0
[Ci fib]
-12.6 -14.5 86 -15 -11 1018.5 1016.6 -15.4 12
00 23.04 В 2-2
{3}
20 км 1/0
[Ci fib]
-8.1 -11.1 79 -12 -6 1017.7 1015.9
03 23.04 В 1-2
{4}
20 км 1/0
[Ci fib]
-5.2 -8.9 75 -7 -1 1016.7 1014.9
06 23.04 В 2-3
{3}
20 км 1/0
[Ci fib]
-7.2 -9.0 87 -12 -10 1015.8 1014.0
09 23.04 В 2-2
{3}
20 км 1/0
[Ci fib]
-11.2 -13.2 85 -16 -16 1015.6 1013.8 -5.2
12 23.04 штиль 0
{3}
500 м переохл. туман ясно -14.4 -15.4 92 -14 -14 1014.8 1013.0
15 23.04 СВ 1-2
{2}
10 км в посл. час туман 3/0
[Ci fib]
-14.8 -16.8 85 -17 -17 1013.7 1011.9
18 23.04 СЗ 1-1
{2}
20 км {туман} 1/0
[Ci fib]
-16.0 -17.9 85 -19 -18 1013.0 1011.2
21 23.04 З 1-2
{2}
20 км 3/0
[Ci fib]
-15.6 -16.9 90 -18 -14 1012.2 1010.4 -17.0 12
00 24.04 СВ 3-5
{5}
20 км 3/0
[Ci fib]
-10.1 -11.6 89 -16 -11 1011.0 1009.2
03 24.04 В 6-7
{8}
20 км позёмок {метель} 3/0
[Ci fib]
-8.8 -10.5 87 -17 -15 1009.5 1007.7
06 24.04 В 6-7
{9}
20 км позёмок {метель} 3/0
[Ac trans]
-10.2 -11.5 90 -19 -18 1008.4 1006.6
09 24.04 В 6-7
{7}
20 км позёмок {метель} 3/0
[Ac trans]
-13.7 -15.0 90 -23 -23 1008.0 1006.2 -8.6
12 24.04 В 4-5
{7}
20 км {метель} ясно -17.4 -18.7 90 -26 -26 1007.1 1005.3
15 24.04 В 2-3
{5}
20 км ясно -19.0 -20.9 85 -25 -25 1006.0 1004.1
18 24.04 В 4-5
{5}
20 км 3/0
[Ci fib]
-19.0 -20.9 85 -28 -27 1005.5 1003.6
21 24.04 В 4-5
{6}
20 км ясно -15.4 -17.3 85 -23 -21 1005.4 1003.6 -20.4 12
00 25.04 В 4-5
{6}
20 км ясно -10.9 -12.4 89 -18 -13 1005.0 1003.2
03 25.04 СВ 6-7
{8}
20 км позёмок {метель} ясно -8.8 -11.5 81 -17 -15 1004.7 1002.9
06 25.04 СВ 6-7
{8}
20 км позёмок {метель} 3/0
[Ci fib]
-9.8 -11.9 85 -18 -18 1004.5 1002.7
09 25.04 СВ 4-5
{7}
20 км {метель} 3/0
[Ac trans Ci fib]
-13.4 -14.7 90 -21 -21 1005.3 1003.5 -8.5
12 25.04 В 4-5
{6}
20 км {метель} 8/3 300 м
[St Ac trans]
-14.2 -15.5 90 -22 -22 1005.3 1003.5
15 25.04 СВ 3-4
{6}
20 км 8/3 300 м
[St Ac trans]
-16.2 -17.5 90 -23 -23 1004.7 1002.9
18 25.04 СВ 4-5
{6}
20 км 3/0
[Ac trans Ci fib]
-17.5 -18.8 90 -26 -25 1004.8 1002.9

 

Местоположение метеостанции Айон Остров (Чукотка, Россия): широта 69.93 долгота 167.90 высота над уровнем моря 14 м.

В архиве по умолчанию представлена погода на Айон Острове за последнюю неделю. Архивные данные за месяц целиком и за предыдущие месяцы, начиная с января 2011 года, Вы можете получить, выбрав интересующий диапазон дат из раскрывающегося списка и нажав кнопку "Ввод!".


*Определитесь, кто Вы:
робот инопланетянин человек

Внимание! Время в таблицах - всемирное. Для получения местного времени необходимо прибавить поправку, которая на Айон Острове равна 12 ч.

Смотрите также архив погоды в соседних городах и на ближайших метеорологических станциях:

Погода в Раучуе (Чукотка, Россия) (72 км)
Погода в Певеке (Чукотка, Россия) (92 км)
Погода в Валькаркае (Чукотка, Россия) (115 км)
Погода в 21 км (Чукотка, Россия) (117 км)
Погода в Чауне (Чукотка, Россия) (160 км)
Погода в Комсомольской (Чукотка, Россия) (211 км)
Погода в Билибино (Чукотка, Россия) (217 км)
Погода в Бухте Амбарчик (Чукотка, Россия) (218 км)
Погода на Островном (Чукотка, Россия) (252 км)
Погода в Паляваам-Глубокой (Чукотка, Россия) (257 км)

Пояснения к столбцам:

Ветер - указаны скорость ветра в м/с - средняя за 10 мин, порывы в срок и между сроками (в фигурных скобках) и направление, откуда дует ветер: С - северный, СВ - северо-восточный, В - восточный, ЮВ - юго-восточный, Ю - южный, ЮЗ - юго-западный, З - западный, СЗ - северо-западный.
Видимость - горизонтальная дальность видимости в метрах или километрах. При видимости от 1 до 10 км при отсутствии осадков обычно наблюдается дымка, при ухудшении видимости до 1 км и менее - туман. В сухую погоду видимость может ухудшаться дымом, пылью или мглою.
Явления - указаны атмосферные явления, наблюдавшиеся в срок или в последний час перед сроком; фигурными скобками обозначены явления, наблюдавшиеся между сроками (за 1-3 часа до срока); квадратными скобками обозначены град или гололедные отложения с указанием их диаметра в мм.
Облачность - указаны через наклонную черту общая и нижняя облачность в баллах и высота нижней границы облаков в метрах; квадратными скобками обозначены формы облаков: Ci - перистые, Cs - перисто-слоистые, Cc - перисто-кучевые, Ac - высококучевые, As - высокослоистые, Sc - слоисто-кучевые, Ns - слоисто-дождевые, Cu - кучевые, Cb - кучево-дождевые. Подробнее классификацию облаков см. в Атласе облаков (PDF).
T - Температура воздуха - температура, измеренная на высоте 2 м над землей.
Td - Температура точки росы - температура, при понижении до которой содержащийся в воздухе водяной пар достигнет насыщения.
f - Относительная влажность воздуха - влажноcть воздуха, измеренная на высоте 2 м над землей.
Te - Эффективная температура - температура, которую ощущает одетый по сезону человек в тени. Характеристика душности погоды. При расчете учитывается влияние влажности воздуха и скорости ветра на теплоощущения человека.
Tes - Эффективная температура на солнце - температура, которую ощущает человек, с поправкой на солнечный нагрев. Характеристика знойности погоды. Зависит от высоты солнца над горизонтом, облачности и скорости ветра. Ночью, в пасмурную погоду, а также при ветре 12 м/с и более поправка равна нулю.
P - Атмосферное давление - приведенное к уровню моря атмосферное давление.
Po - Атмосферное давление - измеренное на уровне метеостанции атмосферное давление.
Tmin - Минимальная температура - минимум температуры воздуха на высоте 2 м над землей.
Tmax - Максимальная температура - максимум температуры воздуха на высоте 2 м над землей.
R - Количество осадков - Количество выпавших осадков за период времени, мм. При наведении курсора мыши на число - период времени, за который выпало указанное количество осадков.
R24 - Количество осадков - Количество выпавших осадков за 24 часа, мм.
S - Снежный покров - Высота снежного покрова, см. При наведении курсора мыши на число - состояние снежного покрова и степень покрытия местности в баллах.